Location: Utrecht
(52.0907°N, 5.1214°E)
Time: 14:57:37
(UTC+02:00)

ESTCUBE 1 - Pass Details

Date: 26 June 2022
Orbit: 646 x 657 km, 97.9° (Epoch: 08 August)

Event Time Altitude Azimuth Distance (km) Brightness Sun altitude
Exits shadow 22:56:27 - 140° (SE) 2,223 ? -6.3°
Reaches altitude 10° 22:56:55 10° 138° (SE) 2,044 ? -6.4°
Maximum altitude 23:01:07 43° 67° (ENE) 916 ? -6.7°
Drops below altitude 10° 23:05:22 10° 357° (N) 2,062 ? -7.1°
Sets 23:07:40 0° 351° (N) 2,979 ? -7.3°
